Archiv-/Tagesdaten

--Timestamp---	Temp	Chill	HIndex	Humid	Dewpt	Wind	HiWind	WindDir	Rain	Barom	Solar	ET	UV
--------------	----	-----	------	-----	-----	----	------	-------	----	-----	-----	--	--
20070926 00:05	7.6	7.6	7.6	93	6.6	0	2	180	0.00	1017.951	0	0.000	0
20070926 00:10	7.6	7.6	7.6	92	6.3	0	2	180	0.00	1017.850	0	0.000	0
20070926 00:15	7.6	7.6	7.6	92	6.3	0	3	180	0.00	1017.782	0	0.000	0
20070926 00:20	7.6	7.6	7.6	93	6.6	0	2	180	0.00	1017.748	0	0.000	0
20070926 00:25	7.6	7.6	7.6	93	6.6	0	2	180	0.00	1017.680	0	0.000	0
20070926 00:30	7.6	7.6	7.6	93	6.6	0	2	180	0.20	1017.579	0	0.000	0
20070926 00:35	7.6	7.6	7.6	93	6.6	2	6	180	0.00	1017.579	0	0.000	0
20070926 00:40	7.6	7.6	7.6	93	6.5	0	3	180	0.00	1017.579	0	0.000	0
20070926 00:45	7.6	7.6	7.6	93	6.5	0	2	180	0.00	1017.443	0	0.000	0
20070926 00:50	7.6	7.6	7.6	93	6.5	0	5	180	0.00	1017.409	0	0.000	0
20070926 00:55	7.6	7.6	7.6	93	6.5	0	6	180	0.00	1017.376	0	0.000	0
20070926 01:00	7.6	7.6	7.6	93	6.5	2	5	180	0.00	1017.376	0	0.000	0
20070926 01:05	7.5	7.5	7.5	93	6.4	2	6	180	0.00	1017.409	0	0.000	0
20070926 01:10	7.4	7.4	7.4	93	6.4	2	6	180	0.00	1017.443	0	0.000	0
20070926 01:15	7.4	7.4	7.4	93	6.4	0	3	180	0.00	1017.477	0	0.000	0
20070926 01:20	7.4	7.4	7.4	93	6.4	0	6	180	0.00	1017.477	0	0.000	0
20070926 01:25	7.4	7.4	7.4	93	6.4	0	2	180	0.00	1017.409	0	0.000	0
20070926 01:30	7.4	7.4	7.4	93	6.4	0	5	180	0.00	1017.342	0	0.000	0
20070926 01:35	7.4	7.4	7.4	93	6.3	0	5	180	0.00	1017.409	0	0.000	0
20070926 01:40	7.3	7.3	7.3	92	6.1	0	2	180	0.00	1017.376	0	0.000	0
20070926 01:45	7.3	7.3	7.3	92	6.1	0	0	180	0.00	1017.308	0	0.000	0
20070926 01:50	7.2	7.2	7.2	92	6.0	0	2	180	0.00	1017.308	0	0.000	0
20070926 01:55	7.2	7.2	7.2	92	6.0	0	3	180	0.00	1017.308	0	0.000	0
20070926 02:00	7.2	7.2	7.2	92	6.0	0	2	180	0.20	1017.274	0	0.000	0
20070926 02:05	7.2	7.2	7.2	92	6.0	0	2	180	0.00	1017.071	0	0.000	0
20070926 02:10	7.2	7.2	7.2	92	6.0	0	2	180	0.00	1017.071	0	0.000	0
20070926 02:15	7.3	7.3	7.3	92	6.1	0	2	180	0.20	1017.037	0	0.000	0
20070926 02:20	7.3	7.3	7.3	92	6.1	0	0	180	0.00	1016.901	0	0.000	0
20070926 02:25	7.2	7.2	7.2	92	6.0	0	0	180	0.00	1016.834	0	0.000	0
20070926 02:30	7.3	7.3	7.3	92	6.1	0	2	180	0.00	1016.800	0	0.000	0
20070926 02:35	7.3	7.3	7.3	92	6.1	0	0	180	0.00	1016.766	0	0.000	0
20070926 02:40	7.3	7.3	7.3	92	6.1	0	2	180	0.20	1016.732	0	0.000	0
20070926 02:45	7.3	7.3	7.3	92	6.1	0	2	180	0.00	1016.597	0	0.000	0
20070926 02:50	7.3	7.3	7.3	92	6.1	0	2	180	0.00	1016.495	0	0.000	0
20070926 02:55	7.3	7.3	7.3	92	6.1	0	3	180	0.00	1016.427	0	0.000	0
20070926 03:00	7.2	7.2	7.2	92	6.0	0	3	180	0.00	1016.326	0	0.000	0
20070926 03:05	7.2	7.2	7.2	92	6.0	0	2	180	0.00	1016.326	0	0.000	0
20070926 03:10	7.2	7.2	7.2	92	6.0	0	2	180	0.00	1016.258	0	0.000	0
20070926 03:15	7.2	7.2	7.2	92	6.0	0	2	180	0.00	1016.258	0	0.000	0
20070926 03:20	7.2	7.2	7.2	92	6.0	0	5	180	0.00	1016.123	0	0.000	0
20070926 03:25	7.2	7.2	7.2	92	6.0	0	3	180	0.00	1015.919	0	0.000	0
20070926 03:30	7.2	7.2	7.2	92	6.0	0	2	180	0.00	1015.750	0	0.000	0
20070926 03:35	7.2	7.2	7.2	92	6.0	0	2	180	0.00	1015.649	0	0.000	0
20070926 03:40	7.2	7.2	7.2	92	6.0	0	2	180	0.00	1015.649	0	0.000	0
20070926 03:45	7.2	7.2	7.2	92	6.0	0	0	180	0.00	1015.615	0	0.000	0
20070926 03:50	7.2	7.2	7.2	92	6.0	0	0	180	0.00	1015.649	0	0.000	0
20070926 03:55	7.1	7.1	7.1	92	5.9	0	0	180	0.00	1015.682	0	0.000	0
20070926 04:00	7.2	7.2	7.2	93	6.1	0	2	180	0.00	1015.716	0	0.000	0
20070926 04:05	7.2	7.2	7.2	93	6.1	0	2	180	0.00	1015.818	0	0.000	0
20070926 04:10	7.2	7.2	7.2	93	6.1	0	2	180	0.00	1015.615	0	0.000	0
20070926 04:15	7.1	7.1	7.1	92	5.9	0	2	180	0.00	1015.649	0	0.000	0
20070926 04:20	7.1	7.1	7.1	93	6.1	0	0	180	0.00	1015.649	0	0.000	0
20070926 04:25	7.1	7.1	7.1	93	6.1	0	0	180	0.00	1015.513	0	0.000	0
20070926 04:30	7.1	7.1	7.1	93	6.1	0	0	180	0.00	1015.479	0	0.000	0
20070926 04:35	7.1	7.1	7.1	93	6.1	0	0	180	0.00	1015.479	0	0.000	0
20070926 04:40	7.1	7.1	7.1	93	6.1	0	0	180	0.00	1015.479	0	0.000	0
20070926 04:45	7.1	7.1	7.1	93	6.1	0	3	180	0.00	1015.411	0	0.000	0
20070926 04:50	7.1	7.1	7.1	93	6.0	2	5	180	0.00	1015.344	0	0.000	0
20070926 04:55	7.1	7.1	7.1	93	6.1	0	3	180	0.00	1015.378	0	0.000	0
20070926 05:00	7.1	7.1	7.1	93	6.1	0	0	180	0.00	1015.411	0	0.000	0
20070926 05:05	7.1	7.1	7.1	93	6.0	0	0	180	0.00	1015.378	0	0.000	0
20070926 05:10	7.1	7.1	7.1	92	5.8	0	0	180	0.00	1015.411	0	0.000	0
20070926 05:15	7.1	7.1	7.1	92	5.8	0	0	180	0.00	1015.479	0	0.000	0
20070926 05:20	7.0	7.0	7.0	92	5.8	0	2	180	0.00	1015.445	0	0.000	0
20070926 05:25	7.0	7.0	7.0	92	5.8	0	0	180	0.00	1015.378	0	0.000	0
20070926 05:30	7.1	7.1	7.1	92	5.8	0	0	180	0.00	1015.513	0	0.000	0
20070926 05:35	7.1	7.1	7.1	92	5.8	0	0	180	0.20	1015.547	0	0.000	0
20070926 05:40	7.1	7.1	7.1	92	5.8	0	0	180	0.00	1015.513	0	0.000	0
20070926 05:45	7.1	7.1	7.1	92	5.8	0	0	180	0.00	1015.479	0	0.000	0
20070926 05:50	7.1	7.1	7.1	92	5.8	0	0	180	0.00	1015.479	0	0.000	0
20070926 05:55	7.1	7.1	7.1	93	6.1	0	2	180	0.00	1015.411	0	0.000	0
20070926 06:00	7.1	7.1	7.1	93	6.1	0	0	180	0.00	1015.378	0	0.000	0
20070926 06:05	7.1	7.1	7.1	92	5.8	0	2	180	0.20	1015.276	0	0.000	0
20070926 06:10	7.0	7.0	7.0	91	5.6	0	2	180	0.00	1015.276	0	0.000	0
20070926 06:15	6.9	6.9	6.9	91	5.6	0	0	180	0.00	1015.242	0	0.000	0
20070926 06:20	6.9	6.9	6.9	91	5.6	0	2	180	0.00	1015.242	0	0.000	0
20070926 06:25	6.9	6.9	6.9	92	5.7	0	2	180	0.00	1015.174	0	0.000	0
20070926 06:30	6.9	6.9	6.9	92	5.7	0	0	180	0.20	1015.073	0	0.000	0
20070926 06:35	6.9	6.9	6.9	92	5.7	0	2	180	0.00	1015.107	0	0.000	0
20070926 06:40	6.9	6.9	6.9	92	5.7	0	2	180	0.20	1015.107	0	0.000	0
20070926 06:45	6.9	6.9	6.9	92	5.7	0	3	180	0.00	1015.141	0	0.000	0
20070926 06:50	6.9	6.9	6.9	92	5.7	0	3	180	0.00	1015.208	0	0.000	0
20070926 06:55	6.9	6.9	6.9	92	5.7	0	2	180	0.00	1015.344	0	0.000	0
20070926 07:00	6.9	6.9	6.9	92	5.7	0	2	180	0.00	1015.242	0	0.000	0
20070926 07:05	6.9	6.9	6.9	92	5.7	0	0	180	0.00	1015.276	0	0.000	0
20070926 07:10	6.9	6.9	6.9	92	5.7	0	3	180	0.00	1015.310	0	0.000	0
20070926 07:15	6.9	6.9	6.9	92	5.7	0	2	180	0.00	1015.378	0	0.000	0
20070926 07:20	6.9	6.9	6.9	92	5.7	0	2	180	0.00	1015.378	0	0.000	0
20070926 07:25	6.9	6.9	6.9	92	5.7	0	3	180	0.00	1015.276	0	0.000	0
20070926 07:30	6.8	6.8	6.8	92	5.6	2	3	180	0.20	1015.174	0	0.000	0
20070926 07:35	6.8	6.8	6.8	92	5.6	0	2	180	0.00	1015.174	5	0.000	0
20070926 07:40	6.8	6.8	6.8	92	5.6	0	3	180	0.00	1015.107	5	0.000	0
20070926 07:45	6.8	6.8	6.8	92	5.6	0	3	180	0.00	1015.039	10	0.000	0
20070926 07:50	6.8	6.8	6.8	92	5.6	0	5	180	0.00	1015.107	15	0.000	0
20070926 07:55	6.8	6.8	6.8	92	5.6	2	5	180	0.00	1015.005	16	0.000	0
20070926 08:00	6.8	6.8	6.8	92	5.6	2	5	180	0.20	1015.039	10	0.000	0
20070926 08:05	6.8	6.8	6.8	92	5.6	2	5	180	0.00	1015.039	5	0.000	0
20070926 08:10	6.8	6.8	6.8	92	5.6	0	3	180	0.00	1015.039	7	0.000	0
20070926 08:15	6.8	6.8	6.8	92	5.6	2	5	180	0.20	1014.971	15	0.000	0
20070926 08:20	6.8	6.8	6.8	92	5.6	2	5	180	0.00	1014.971	18	0.000	0
20070926 08:25	6.8	6.8	6.8	92	5.6	2	3	180	0.00	1014.836	15	0.000	0
20070926 08:30	6.8	6.8	6.8	92	5.6	2	5	180	0.20	1014.802	12	0.000	0
20070926 08:35	6.8	6.8	6.8	92	5.6	3	6	180	0.00	1014.802	25	0.000	0
20070926 08:40	6.8	6.8	6.8	92	5.6	2	5	180	0.00	1014.802	42	0.000	0
20070926 08:45	6.8	6.8	6.8	92	5.6	2	5	180	0.20	1014.870	49	0.000	0
20070926 08:50	6.9	6.9	6.9	92	5.7	2	5	180	0.00	1014.768	49	0.000	0
20070926 08:55	6.9	6.9	6.9	92	5.7	2	6	180	0.00	1014.836	46	0.000	0
20070926 09:00	6.9	6.9	6.9	92	5.7	2	5	180	0.00	1014.836	34	0.020	0
20070926 09:05	6.9	6.9	6.9	92	5.7	2	6	180	0.00	1014.971	33	0.000	0
20070926 09:10	6.9	6.9	6.9	92	5.7	3	6	180	0.00	1014.904	35	0.000	0
20070926 09:15	6.9	6.9	6.9	92	5.7	3	6	180	0.00	1014.666	47	0.000	0
20070926 09:20	6.9	6.9	6.9	92	5.7	3	6	180	0.00	1014.633	52	0.000	0
20070926 09:25	7.0	7.0	7.0	92	5.8	5	6	180	0.00	1014.531	63	0.000	0
20070926 09:30	7.0	7.0	7.0	92	5.8	3	6	22	0.20	1014.531	56	0.000	0
20070926 09:35	7.1	7.1	7.1	92	5.8	3	6	22	0.00	1014.531	52	0.000	0
20070926 09:40	7.1	7.1	7.1	92	5.8	2	5	0	0.00	1014.463	58	0.000	0
20070926 09:45	7.1	7.1	7.1	92	5.9	3	8	22	0.00	1014.294	73	0.000	0
20070926 09:50	7.2	7.2	7.2	92	6.0	3	8	22	0.00	1014.226	99	0.000	1
20070926 09:55	7.2	7.2	7.2	92	6.0	3	8	22	0.00	1014.192	116	0.000	1
20070926 10:00	7.2	7.2	7.2	92	6.0	5	10	22	0.00	1014.192	113	0.020	1
20070926 10:05	7.2	7.2	7.2	91	5.9	3	5	22	0.00	1014.226	79	0.000	0
20070926 10:10	7.3	7.3	7.3	92	6.1	2	5	22	0.00	1014.226	67	0.000	0
20070926 10:15	7.4	7.4	7.4	91	6.0	3	6	22	0.00	1014.159	82	0.000	0
20070926 10:20	7.4	7.4	7.4	92	6.2	2	5	22	0.00	1014.125	52	0.000	0
20070926 10:25	7.4	7.4	7.4	91	6.0	3	5	22	0.00	1014.192	37	0.000	0
20070926 10:30	7.4	7.4	7.4	91	6.0	3	6	22	0.00	1014.159	40	0.000	0
20070926 10:35	7.4	7.4	7.4	91	6.0	3	6	22	0.00	1014.091	42	0.000	0
20070926 10:40	7.4	7.4	7.4	91	6.0	3	5	22	0.00	1013.989	38	0.000	0
20070926 10:45	7.4	7.4	7.4	92	6.2	2	6	45	0.00	1014.023	39	0.000	0
20070926 10:50	7.4	7.4	7.4	92	6.2	3	8	22	0.00	1013.955	41	0.000	0
20070926 10:55	7.4	7.4	7.4	92	6.2	2	5	0	0.00	1014.023	21	0.000	0
20070926 11:00	7.4	7.4	7.4	92	6.2	2	5	22	0.00	1013.955	14	0.020	0
20070926 11:05	7.4	7.4	7.4	91	6.1	3	5	22	0.00	1013.888	19	0.000	0
20070926 11:10	7.4	7.4	7.4	91	6.1	3	5	67	0.00	1013.718	26	0.000	0
20070926 11:15	7.4	7.4	7.4	91	6.1	2	5	22	0.00	1013.854	32	0.000	0
20070926 11:20	7.4	7.4	7.4	91	6.1	2	5	22	0.00	1013.820	40	0.000	0
20070926 11:25	7.5	7.5	7.5	91	6.1	3	5	22	0.00	1013.549	50	0.000	0
20070926 11:30	7.6	7.6	7.6	91	6.2	2	5	22	0.00	1013.481	56	0.000	0
20070926 11:35	7.7	7.7	7.7	91	6.3	2	5	22	0.00	1013.312	60	0.000	0
20070926 11:40	7.7	7.7	7.7	91	6.3	2	5	22	0.00	1013.414	45	0.000	0
20070926 11:45	7.7	7.7	7.7	91	6.3	0	3	22	0.00	1013.447	29	0.000	0
20070926 11:50	7.7	7.7	7.7	91	6.3	0	3	22	0.00	1013.278	26	0.000	0
20070926 11:55	7.7	7.7	7.7	91	6.3	3	8	22	0.00	1013.278	27	0.000	0
20070926 12:00	7.7	7.7	7.7	91	6.3	3	6	22	0.00	1013.210	40	0.020	0
20070926 12:05	7.8	7.8	7.8	91	6.4	3	5	22	0.00	1013.075	55	0.000	0
20070926 12:10	7.8	7.8	7.8	92	6.6	3	5	67	0.00	1012.973	55	0.000	0
20070926 12:15	7.8	7.8	7.8	91	6.5	3	6	45	0.20	1012.872	57	0.000	0
20070926 12:20	7.8	7.8	7.8	91	6.4	5	8	45	0.20	1012.702	59	0.000	0
20070926 12:25	7.8	7.8	7.8	91	6.4	5	10	45	0.00	1012.669	80	0.000	1
20070926 12:30	7.8	7.8	7.8	91	6.4	3	6	22	0.20	1012.635	99	0.000	1
20070926 12:35	7.8	7.8	7.8	92	6.6	3	8	0	0.00	1012.635	75	0.000	1
20070926 12:40	7.9	7.9	7.9	92	6.7	3	6	0	0.20	1012.635	61	0.000	0
20070926 12:45	7.9	7.9	7.9	92	6.7	2	8	22	0.00	1012.601	48	0.000	0
20070926 12:50	7.9	7.9	7.9	92	6.7	5	6	22	0.20	1012.635	37	0.000	0
20070926 12:55	7.8	7.8	7.8	92	6.6	5	8	22	0.00	1012.601	52	0.000	0
20070926 13:00	7.8	7.8	7.8	92	6.6	3	6	22	0.00	1012.431	97	0.020	1
20070926 13:05	7.9	7.9	7.9	92	6.7	5	8	22	0.20	1012.567	132	0.000	1
20070926 13:10	7.9	7.9	7.9	92	6.7	3	6	0	0.00	1012.499	94	0.000	1
20070926 13:15	8.1	8.1	8.1	93	7.0	2	5	0	0.00	1012.398	83	0.000	1
20070926 13:20	8.1	8.1	8.1	92	6.8	3	10	0	0.00	1012.161	87	0.000	1
20070926 13:25	8.1	8.1	8.1	92	6.9	5	10	22	0.20	1012.059	147	0.000	1
20070926 13:30	8.2	8.2	8.2	93	7.2	3	8	22	0.00	1012.025	212	0.000	2
20070926 13:35	8.3	7.0	8.3	91	6.9	8	14	22	0.00	1011.957	195	0.000	2
20070926 13:40	8.3	7.4	8.3	91	7.0	6	11	22	0.00	1012.025	133	0.000	1
20070926 13:45	8.3	7.4	8.3	90	6.7	6	14	22	0.00	1011.924	66	0.000	1
20070926 13:50	8.2	7.3	8.2	90	6.7	6	11	22	0.00	1011.957	56	0.000	0
20070926 13:55	8.2	8.2	8.2	90	6.6	5	10	22	0.00	1011.856	35	0.000	0
20070926 14:00	8.1	7.2	8.1	90	6.6	6	13	22	0.00	1011.856	59	0.040	0
20070926 14:05	8.2	6.9	8.2	90	6.6	8	14	22	0.00	1011.788	93	0.000	1
20070926 14:10	8.2	6.9	8.2	89	6.5	8	14	22	0.00	1011.619	75	0.000	1
20070926 14:15	8.2	8.2	8.2	90	6.7	5	11	45	0.00	1011.551	60	0.000	0
20070926 14:20	8.2	7.3	8.2	90	6.7	6	14	45	0.00	1011.517	54	0.000	0
20070926 14:25	8.2	8.2	8.2	90	6.7	3	10	22	0.00	1011.483	50	0.000	0
20070926 14:30	8.2	8.2	8.2	90	6.7	5	10	45	0.00	1011.416	38	0.000	0
20070926 14:35	8.2	8.2	8.2	90	6.7	5	11	0	0.00	1011.449	25	0.000	0
20070926 14:40	8.2	8.2	8.2	91	6.8	5	8	22	0.00	1011.348	26	0.000	0
20070926 14:45	8.2	7.3	8.2	91	6.8	6	10	22	0.00	1011.246	29	0.000	0
20070926 14:50	8.1	7.2	8.1	91	6.7	6	10	22	0.20	1011.212	35	0.000	0
20070926 14:55	8.1	8.1	8.1	91	6.7	3	11	45	0.00	1011.246	43	0.000	0
20070926 15:00	8.2	8.2	8.2	91	6.8	3	6	22	0.20	1011.280	49	0.020	0
20070926 15:05	8.2	8.2	8.2	91	6.8	5	8	0	0.00	1011.179	64	0.000	0
20070926 15:10	8.2	8.2	8.2	91	6.8	5	10	22	0.20	1011.246	29	0.000	0
20070926 15:15	8.2	8.2	8.2	91	6.8	3	8	22	0.00	1011.212	38	0.000	0
20070926 15:20	8.2	8.2	8.2	92	6.9	2	6	22	0.00	1011.145	39	0.000	0
20070926 15:25	8.2	8.2	8.2	92	6.9	3	6	22	0.00	1011.111	34	0.000	0
20070926 15:30	8.2	8.2	8.2	92	6.9	3	10	22	0.00	1011.212	35	0.000	0
20070926 15:35	8.2	8.2	8.2	92	6.9	5	8	22	0.00	1011.043	36	0.000	0
20070926 15:40	8.2	8.2	8.2	92	7.0	5	10	22	0.00	1010.975	36	0.000	0
20070926 15:45	8.2	8.2	8.2	92	7.0	5	8	22	0.00	1010.840	34	0.000	0
20070926 15:50	8.2	8.2	8.2	92	7.0	5	10	22	0.00	1010.908	27	0.000	0
20070926 15:55	8.2	8.2	8.2	92	6.9	5	10	22	0.00	1010.840	22	0.000	0
20070926 16:00	8.1	8.1	8.1	92	6.9	5	11	22	0.00	1010.840	17	0.020	0
20070926 16:05	8.0	7.1	8.0	92	6.8	6	13	22	0.00	1010.840	16	0.000	0
20070926 16:10	7.9	7.0	7.9	92	6.7	6	11	22	0.00	1010.975	14	0.000	0
20070926 16:15	7.9	7.0	7.9	92	6.7	6	16	22	0.00	1010.941	14	0.000	0
20070926 16:20	7.9	7.9	7.9	92	6.7	5	10	22	0.00	1010.941	15	0.000	0
20070926 16:25	7.9	7.9	7.9	92	6.7	5	10	22	0.20	1010.806	13	0.000	0
20070926 16:30	7.9	7.9	7.9	92	6.7	5	11	22	0.00	1010.840	9	0.000	0
20070926 16:35	7.9	7.9	7.9	93	6.9	3	10	0	0.20	1010.806	11	0.000	0
20070926 16:40	7.8	6.5	7.8	93	6.8	8	16	22	0.00	1010.704	11	0.000	0
20070926 16:45	7.8	6.4	7.8	93	6.7	8	14	22	0.20	1010.569	17	0.000	0
20070926 16:50	7.7	6.3	7.7	93	6.7	8	16	22	0.00	1010.603	18	0.000	0
20070926 16:55	7.7	6.0	7.7	93	6.7	10	18	22	0.20	1010.569	17	0.000	0
20070926 17:00	7.7	6.7	7.7	93	6.6	6	11	22	0.00	1010.603	16	0.000	0
20070926 17:05	7.7	7.7	7.7	93	6.6	5	10	22	0.00	1010.501	14	0.000	0
20070926 17:10	7.7	6.7	7.7	93	6.6	6	11	22	0.20	1010.467	16	0.000	0
20070926 17:15	7.7	6.7	7.7	93	6.6	6	10	22	0.00	1010.501	18	0.000	0
20070926 17:20	7.7	7.7	7.7	93	6.7	5	10	45	0.00	1010.433	20	0.000	0
20070926 17:25	7.7	7.7	7.7	93	6.7	5	8	22	0.00	1010.501	14	0.000	0
20070926 17:30	7.7	6.7	7.7	93	6.7	6	11	22	0.00	1010.501	11	0.000	0
20070926 17:35	7.7	6.7	7.7	93	6.7	6	11	22	0.00	1010.433	12	0.000	0
20070926 17:40	7.7	6.7	7.7	93	6.7	6	11	22	0.00	1010.400	12	0.000	0
20070926 17:45	7.8	7.8	7.8	93	6.7	5	10	22	0.00	1010.332	12	0.000	0
20070926 17:50	7.8	7.8	7.8	93	6.7	5	10	0	0.00	1010.196	13	0.000	0
20070926 17:55	7.8	7.8	7.8	93	6.7	5	11	22	0.00	1010.264	10	0.000	0
20070926 18:00	7.8	7.8	7.8	93	6.7	3	10	22	0.00	1010.366	5	0.000	0
20070926 18:05	7.8	6.8	7.8	93	6.7	6	14	22	0.00	1010.400	3	0.000	0
20070926 18:10	7.7	6.7	7.7	93	6.7	6	14	22	0.00	1010.332	0	0.000	0
20070926 18:15	7.7	5.9	7.7	92	6.4	10	19	22	0.20	1010.332	0	0.000	0
20070926 18:20	7.6	6.2	7.6	92	6.4	8	14	22	0.00	1010.230	5	0.000	0
20070926 18:25	7.6	6.5	7.6	92	6.3	6	14	22	0.00	1010.230	0	0.000	0
20070926 18:30	7.6	7.6	7.6	93	6.5	5	10	22	0.20	1010.163	0	0.000	0
20070926 18:35	7.6	6.5	7.6	93	6.5	6	14	22	0.00	1010.163	0	0.000	0
20070926 18:40	7.6	6.5	7.6	93	6.5	6	11	22	0.00	1010.095	0	0.000	0
20070926 18:45	7.5	6.1	7.5	92	6.3	8	13	22	0.00	1010.061	0	0.000	0
20070926 18:50	7.4	6.4	7.4	92	6.2	6	14	0	0.00	1010.230	0	0.000	0
20070926 18:55	7.4	6.4	7.4	92	6.2	6	14	22	0.00	1010.163	0	0.000	0
20070926 19:00	7.4	7.4	7.4	93	6.3	5	8	22	0.20	1010.027	0	0.000	0
20070926 19:05	7.3	7.3	7.3	93	6.3	5	10	22	0.00	1010.027	0	0.000	0
20070926 19:10	7.3	7.3	7.3	93	6.3	5	14	22	0.00	1009.993	0	0.000	0
20070926 19:15	7.3	5.9	7.3	93	6.3	8	14	22	0.00	1009.959	0	0.000	0
20070926 19:20	7.3	6.3	7.3	93	6.3	6	14	22	0.00	1009.824	0	0.000	0
20070926 19:25	7.3	5.9	7.3	93	6.3	8	16	22	0.00	1009.926	0	0.000	0
20070926 19:30	7.3	7.3	7.3	93	6.3	5	10	22	0.00	1009.926	0	0.000	0
20070926 19:35	7.3	6.3	7.3	92	6.1	6	11	22	0.00	1009.858	0	0.000	0
20070926 19:40	7.3	6.3	7.3	93	6.3	6	10	22	0.00	1009.790	0	0.000	0
20070926 19:45	7.3	6.3	7.3	92	6.1	6	14	22	0.00	1009.756	0	0.000	0
20070926 19:50	7.4	7.4	7.4	93	6.3	5	11	22	0.00	1009.756	0	0.000	0
20070926 19:55	7.3	6.3	7.3	93	6.3	6	14	22	0.20	1009.621	0	0.000	0
20070926 20:00	7.3	6.3	7.3	92	6.1	6	11	22	0.00	1009.621	0	0.000	0
20070926 20:05	7.3	6.3	7.3	92	6.1	6	11	22	0.00	1009.485	0	0.000	0
20070926 20:10	7.3	7.3	7.3	93	6.3	5	13	22	0.00	1009.451	0	0.000	0
20070926 20:15	7.3	6.3	7.3	93	6.3	6	11	22	0.00	1009.451	0	0.000	0
20070926 20:20	7.3	7.3	7.3	93	6.3	5	14	22	0.00	1009.451	0	0.000	0
20070926 20:25	7.3	7.3	7.3	93	6.2	3	8	22	0.00	1009.553	0	0.000	0
20070926 20:30	7.3	7.3	7.3	93	6.2	3	8	22	0.00	1009.519	0	0.000	0
20070926 20:35	7.3	7.3	7.3	93	6.2	2	6	22	0.00	1009.485	0	0.000	0
20070926 20:40	7.3	7.3	7.3	93	6.3	2	5	0	0.00	1009.553	0	0.000	0
20070926 20:45	7.3	7.3	7.3	94	6.4	0	2	22	0.20	1009.519	0	0.000	0
20070926 20:50	7.4	7.4	7.4	94	6.5	0	5	270	0.00	1009.587	0	0.000	0
20070926 20:55	7.4	7.4	7.4	94	6.5	2	8	0	0.00	1009.485	0	0.000	0
20070926 21:00	7.4	7.4	7.4	94	6.5	0	2	22	0.20	1009.485	0	0.000	0
20070926 21:05	7.4	7.4	7.4	94	6.5	0	2	315	0.00	1009.418	0	0.000	0
20070926 21:10	7.4	7.4	7.4	94	6.5	0	5	45	0.20	1009.451	0	0.000	0
20070926 21:15	7.4	7.4	7.4	94	6.5	0	3	45	0.00	1009.282	0	0.000	0
20070926 21:20	7.4	7.4	7.4	94	6.5	0	2	292	0.20	1009.282	0	0.000	0
20070926 21:25	7.4	7.4	7.4	94	6.5	0	5	292	0.00	1009.248	0	0.000	0
20070926 21:30	7.3	7.3	7.3	94	6.4	2	5	292	0.20	1009.214	0	0.000	0
20070926 21:35	7.3	7.3	7.3	94	6.4	2	5	292	0.00	1009.181	0	0.000	0
20070926 21:40	7.3	7.3	7.3	94	6.4	0	5	292	0.00	1009.113	0	0.000	0
20070926 21:45	7.3	7.3	7.3	94	6.4	2	5	292	0.00	1009.113	0	0.000	0
20070926 21:50	7.3	7.3	7.3	94	6.4	2	5	292	0.20	1009.079	0	0.000	0
20070926 21:55	7.3	7.3	7.3	94	6.4	0	3	292	0.00	1009.011	0	0.000	0
20070926 22:00	7.3	7.3	7.3	94	6.4	2	5	292	0.00	1009.011	0	0.000	0
20070926 22:05	7.3	7.3	7.3	94	6.4	0	5	292	0.00	1008.977	0	0.000	0
20070926 22:10	7.3	7.3	7.3	94	6.4	2	5	292	0.00	1008.910	0	0.000	0
20070926 22:15	7.3	7.3	7.3	94	6.4	2	5	292	0.20	1008.808	0	0.000	0
20070926 22:20	7.3	7.3	7.3	94	6.4	2	5	292	0.00	1008.740	0	0.000	0
20070926 22:25	7.4	7.4	7.4	94	6.5	0	3	292	0.00	1008.503	0	0.000	0
20070926 22:30	7.4	7.4	7.4	94	6.5	0	6	270	0.20	1008.469	0	0.000	0
20070926 22:35	7.4	7.4	7.4	94	6.5	0	2	270	0.00	1008.435	0	0.000	0
20070926 22:40	7.5	7.5	7.5	94	6.6	0	3	270	0.00	1008.435	0	0.000	0
20070926 22:45	7.5	7.5	7.5	94	6.6	0	3	270	0.00	1008.368	0	0.000	0
20070926 22:50	7.5	7.5	7.5	94	6.6	0	3	270	0.20	1008.334	0	0.000	0
20070926 22:55	7.6	7.6	7.6	94	6.7	0	3	270	0.00	1008.300	0	0.000	0
20070926 23:00	7.6	7.6	7.6	94	6.7	0	2	270	0.00	1008.198	0	0.000	0
20070926 23:05	7.6	7.6	7.6	95	6.8	0	3	270	0.00	1007.928	0	0.000	0
20070926 23:10	7.6	7.6	7.6	95	6.9	0	2	270	0.00	1007.961	0	0.000	0
20070926 23:15	7.7	7.7	7.7	95	6.9	0	3	270	0.00	1007.961	0	0.000	0
20070926 23:20	7.6	7.6	7.6	94	6.7	2	5	270	0.00	1007.928	0	0.000	0
20070926 23:25	7.7	7.7	7.7	94	6.8	0	2	270	0.00	1007.792	0	0.000	0
20070926 23:30	7.7	7.7	7.7	94	6.8	0	2	270	0.00	1007.724	0	0.000	0
20070926 23:35	7.7	7.7	7.7	94	6.8	0	2	270	0.00	1007.589	0	0.000	0
20070926 23:40	7.7	7.7	7.7	94	6.8	2	6	22	0.20	1007.589	0	0.000	0
20070926 23:45	7.7	7.7	7.7	94	6.8	0	3	22	0.00	1007.555	0	0.000	0
20070926 23:50	7.7	7.7	7.7	95	6.9	0	2	45	0.00	1007.453	0	0.000	0
20070926 23:55	7.7	7.7	7.7	95	7.0	0	2	45	0.00	1007.386	0	0.000	0
20070926 24:00	7.7	7.7	7.7	95	7.0	0	2	45	0.00	1007.420	0	0.000	0



Please note the license to use and transfer of this data:
http://creativecommons.org/licenses/by-nc-sa/3.0/deed.en

Bitte beachten sie die Lizenz zur Verwertung und Weitergabe der Daten:
http://creativecommons.org/licenses/by-nc-sa/3.0/deed.de

zurück zur Übersicht der Archivdaten (Monats und Tagesdaten)

Cookies helfen bei der Bereitstellung von Inhalten. Durch die Nutzung dieser Seiten erklärst du dich damit einverstanden, dass Cookies auf deinem Rechner gespeichert werden. Weitere Information